Powrót do katalogu

WESTFORD NEEDLES

AktywnyPO
NORAD 602·DEBRIS·🇺🇸 United States

Wystrzelony May 9, 1963 z Vandenberg Space Force Base

Loading…

Następne Przeloty (najbliższe 24 godziny)

TLE

ŚwieżeSource: Space-Track

Epoka: Sep 13, 2026, 17:08 UTC

1 00602U 63014E   26256.71441238  .00000000  00000-0 -12744-2 0  9994
2 00602  87.3717 181.3364 0013014 338.3853  21.6453  8.67238778  5418

Śledź WESTFORD NEEDLES w czasie rzeczywistym z AllMySat

Download on the App Store